• Join FlightAware (Why Join?)
  • Login
  • US Flag 
04:45AM EDT


 

Airport Tracker/Info


-or-


 

Live Flight TrackerFlight Track Log ✈ ASH3735 ✈ 03-Aug-2013 ✈ KORD - KPIT

Flight Track Log - Related Links

Times and Time Zones

All times are in EDT time to prevent confusion due to time zone crossing. See the ASH3735 flight status page for this flight to view local times or setup timezone preferences in your user account.

Time Position Orientation Groundspeed Altitude Reporting Facility
EDT Latitude Longitude Course Direction KTS MPH feet Rate Location/Type
05:55PM 42.0050 -87.8803 97° East 154 177 1,700  Level Chicago Center
05:56PM 42.0075 -87.7842 88° East 209 241 4,000 2,460 Climbing Chicago Center
05:57PM 42.0292 -87.6831 74° East 276 318 6,800 2,460 Climbing Chicago Center
05:58PM 41.9517 -87.3735 95° East  Level FlightAware Approximate
05:58PM 42.0375 -87.5783 84° East 295 339 9,200  Level Chicago Center
05:59PM 41.9384 -87.1986 96° East  Level FlightAware Approximate
05:59PM 42.0164 -87.4583 103° East 322 371 11,500  Level Chicago Center
06:00PM 41.9333 -87.0233 90° East  Level FlightAware Approximate
06:00PM 41.9922 -87.3217 103° East 361 415 13,800  Level Chicago Center
06:01PM 41.8795 -86.8928 97° East  Level FlightAware Approximate
06:02PM 41.9664 -87.1850 104° East 375 432 16,500  Level Chicago Center
06:03PM 41.9467 -87.0136 99° East 386 444 18,800 2,040 Climbing Chicago Center
06:04PM 41.9486 -86.8642 89° East 399 459 20,800 1,800 Climbing Chicago Center
06:05PM 41.9458 -86.7086 91° East 412 474 22,500 1,560 Climbing Chicago Center
06:06PM 41.9275 -86.5367 98° East 435 501 24,100 1,380 Climbing Chicago Center
06:07PM 41.9108 -86.3681 98° East 452 520 25,400 1,260 Climbing Chicago Center
06:08PM 41.8939 -86.1911 97° East 472 543 26,800 1,380 Climbing Chicago Center
06:09PM 41.8761 -86.0114 98° East 482 555 28,300 1,260 Climbing Chicago Center
06:10PM 41.8597 -85.8300 97° East 488 562 29,500 1,140 Climbing Chicago Center
06:11PM 41.8417 -85.6436 97° East 497 572 30,700 720 Climbing Chicago Center
06:12PM 41.8217 -85.4489 98° East 512 589 31,000 240 Climbing Chicago Center
06:13PM 41.7947 -85.2042 98° East 538 619 31,300 600 Climbing Chicago Center
06:14PM 41.7742 -85.0003 98° East 548 631 32,300 960 Climbing Chicago Center
06:15PM 41.7497 -84.7975 99° East 551 634 33,300 960 Climbing Chicago Center
06:16PM 41.7272 -84.5961 98° East 549 632 34,300 900 Climbing Chicago Center
06:17PM 41.7094 -84.4414 99° East 547 629 35,000 360 Climbing Cleveland Center
06:18PM 41.6814 -84.2172 99° East 547 629 35,000  Level Cleveland Center
06:19PM 41.6564 -84.0072 99° East 552 635 35,000  Level Cleveland Center
06:20PM 41.6231 -83.7972 102° East 558 642 35,000  Level Cleveland Center
06:21PM 41.5786 -83.5894 106° East 575 662 35,000  Level Cleveland Center
06:22PM 41.5317 -83.3847 107° East 580 667 35,000  Level Cleveland Center
06:23PM 41.4842 -83.1831 107° East 580 667 35,000 -300 Level Cleveland Center
06:24PM 41.4444 -83.0014 106° East 572 658 34,400 -840 Descending Cleveland Center
06:25PM 41.4006 -82.8033 106° East 567 652 33,400 -1,020 Descending Cleveland Center
06:26PM 41.3542 -82.6025 107° East 557 641 32,400 -1,260 Descending Cleveland Center
06:27PM 41.3075 -82.4103 108° East 551 634 30,900 -2,400 Descending Cleveland Center
06:28PM 41.2606 -82.2128 107° East 551 634 27,700 -2,220 Descending Cleveland Center
06:30PM 41.1756 -81.8467 107° East 522 601 24,400 -1,260 Descending Cleveland Center
06:31PM 41.1333 -81.6692 107° East 509 586 24,000 -240 Descending Cleveland Center
06:32PM 41.0892 -81.4978 109° East 502 578 24,000 -1,440 Level Cleveland Center
06:33PM 41.0467 -81.3292 108° East 486 559 21,200 -3,000 Descending Cleveland Center
06:34PM 41.0078 -81.1664 108° East 478 550 18,000 -3,060 Descending Cleveland Center
06:35PM 40.9711 -81.0122 107° East 453 521 15,200 -2,700 Descending Cleveland Center
06:36PM 40.9339 -80.8661 109° East 430 495 12,600 -2,340 Descending Cleveland Center
06:37PM 40.8989 -80.7314 109° East 410 472 10,600 -1,320 Descending Cleveland Center
06:38PM 40.8425 -80.6022 120° Southeast 373 429 10,000 -300 Descending Cleveland Center
06:39PM 40.7675 -80.5144 138° Southeast 357 411 10,000 -840 Level Cleveland Center
06:40PM 40.7008 -80.4489 143° Southeast 333 383 8,400 -1,500 Descending Cleveland Center
06:41PM 40.6297 -80.3861 146° Southeast 308 354 7,100 -1,200 Descending Cleveland Center
06:42PM 40.5775 -80.3344 143° Southeast 287 330 6,000 -600 Descending Cleveland Center
06:43PM 40.5711 -80.2333 95° East 247 284 5,900 -120 Descending Cleveland Center